This is the latest recevied weather packets stored in our database for station/object KA3WVU. If no packets are shown the sender has not sent any weather packets the latest 10 day(s).
| Time | Temp. | Humidity | Pressure | Rain* | Wind** | Luminosity | Snow |
|---|---|---|---|---|---|---|---|
| 1778019206 | 18.89° C | 58% | 1008.8 hPa | 0 mm | - | 51 W/m² | - |
| 1778018904 | 18.89° C | 57% | 1009 hPa | 0 mm | - | 39 W/m² | - |
| 1778018600 | 18.89° C | 56% | 1008.8 hPa | 0 mm | - | 24 W/m² | - |
| 1778018299 | 18.89° C | 56% | 1008.6 hPa | 0 mm | - | 27 W/m² | - |
| 1778017996 | 19.44° C | 55% | 1008.6 hPa | 0 mm | - | 53 W/m² | - |
| 1778017694 | 19.44° C | 55% | 1008.4 hPa | 0 mm | - | 88 W/m² | - |
| 1778017391 | 19.44° C | 55% | 1008.5 hPa | 0 mm | - | 90 W/m² | - |
| 1778017088 | 19.44° C | 54% | 1008.7 hPa | 0 mm | - | 111 W/m² | - |
| 1778016786 | 19.44° C | 54% | 1008.4 hPa | 0 mm | - | 117 W/m² | - |
| 1778016481 | 19.44° C | 54% | 1008.5 hPa | 0 mm | - | 115 W/m² | - |
| 1778016179 | 20° C | 54% | 1008.3 hPa | 0 mm | - | 124 W/m² | - |
| 1778015875 | 20° C | 53% | 1008.6 hPa | 0 mm | - | 143 W/m² | - |
| 1778015573 | 19.44° C | 53% | 1008.8 hPa | 0 mm | - | 151 W/m² | - |
| 1778015269 | 19.44° C | 55% | 1008.5 hPa | 0 mm | - | 112 W/m² | - |
| 1778014966 | 18.89° C | 54% | 1008.4 hPa | 0 mm | - | 94 W/m² | - |
| 1778014663 | 18.89° C | 54% | 1008.8 hPa | 0 mm | - | 73 W/m² | - |
| 1778014362 | 18.89° C | 55% | 1008.7 hPa | 0 mm | - | 80 W/m² | - |
| 1778014058 | 18.89° C | 54% | 1008.8 hPa | 0 mm | - | 64 W/m² | - |
| 1778013756 | 18.89° C | 55% | 1008.7 hPa | 0 mm | - | 53 W/m² | - |
| 1778013452 | 18.89° C | 55% | 1008.6 hPa | 0 mm | - | 41 W/m² | - |
| 1778013150 | 18.89° C | 54% | 1008.5 hPa | 0 mm | - | 56 W/m² | - |
| 1778012845 | 19.44° C | 54% | 1008.6 hPa | 0 mm | - | 51 W/m² | - |
| 1778012541 | 19.44° C | 54% | 1008.8 hPa | 0 mm | - | 47 W/m² | - |
| 1778012238 | 20° C | 52% | 1008.6 hPa | 0 mm | - | 74 W/m² | - |
| 1778011936 | 20° C | 53% | 1008.6 hPa | 0 mm | - | 107 W/m² | - |
* Rain latest hour (hover to see other rain measurements)
** Current wind speed in m/s (hover to see current wind gust speed)